EST,Max TemperatureF,Mean TemperatureF,Min TemperatureF,Max Dew PointF,MeanDew PointF,Min DewpointF,Max Humidity, Mean Humidity, Min Humidity, Max Sea Level PressureIn, Mean Sea Level PressureIn, Min Sea Level PressureIn, Max VisibilityMiles, Mean VisibilityMiles, Min VisibilityMiles, Max Wind SpeedMPH, Mean Wind SpeedMPH, Max Gust SpeedMPH,PrecipitationIn, CloudCover, Events, WindDirDegrees
2013-11-1,71,63,54,61,57,53,100,84,63,29.79,29.66,29.60,10,7,0,14,6,38,0.06,4,Fog-Rain,216
2013-11-2,69,59,50,55,48,38,100,82,39,29.81,29.68,29.64,10,5,0,10,1,16,0.00,5,Fog,291
2013-11-3,54,45,35,40,32,19,77,57,31,30.45,30.12,29.83,10,10,10,17,6,22,0.01,3,Rain,338
2013-11-4,46,37,28,27,21,17,72,54,30,30.64,30.59,30.48,10,10,9,10,5,17,0.00,0,,15
2013-11-5,59,46,33,41,36,26,93,69,46,30.63,30.58,30.49,10,10,9,8,2,,0.00,2,,85
2013-11-6,66,50,34,54,43,32,96,78,49,30.49,30.32,30.08,10,9,2,6,2,,0.00,2,,172
2013-11-7,62,52,41,58,52,36,90,83,66,30.05,29.90,29.80,10,10,6,10,6,20,0.06,7,Rain,263
2013-11-8,50,44,39,35,26,23,71,50,35,30.27,30.12,30.00,10,10,10,16,9,26,0.01,3,Rain,277
2013-11-9,50,39,28,34,27,24,85,59,36,30.33,30.21,30.02,10,10,10,12,4,,0.00,0,,205
2013-11-10,62,52,42,34,30,24,73,47,29,30.12,29.99,29.88,10,10,10,20,8,32,0.00,3,Rain,254
2013-11-11,54,46,39,35,28,25,60,46,35,30.25,30.14,30.00,10,10,10,10,7,18,0.00,4,Rain,246
2013-11-12,50,40,30,36,26,14,92,68,44,30.35,30.17,29.96,10,7,1,22,10,29,0.05,5,Rain-Snow,332
2013-11-13,39,33,27,20,14,10,72,49,30,30.42,30.37,30.34,10,10,10,15,7,24,0.00,0,,303
2013-11-14,54,42,30,22,15,7,69,40,15,30.33,30.27,30.22,10,10,10,15,8,21,0.00,0,,234
2013-11-15,57,42,26,34,26,22,88,64,29,30.28,30.24,30.19,10,10,10,6,1,,0.00,0,,235
2013-11-16,53,45,37,47,43,33,97,89,77,30.35,30.30,30.26,10,7,3,6,1,,0.05,7,Rain,141
2013-11-17,68,58,48,59,53,46,100,87,68,30.25,30.10,29.79,10,7,0,9,2,,0.00,7,Fog,153
2013-11-18,66,60,51,62,40,23,93,51,21,29.85,29.72,29.65,10,9,4,15,9,30,0.16,4,Rain,250
2013-11-19,48,41,32,26,23,21,64,45,36,30.37,30.12,29.86,10,10,10,21,10,30,0.00,2,,322
2013-11-20,46,35,24,23,17,10,84,54,25,30.60,30.53,30.38,10,10,10,8,3,,0.00,0,,27
2013-11-21,53,40,28,40,31,16,77,63,52,30.60,30.52,30.40,10,10,10,6,3,,0.00,5,,72
2013-11-22,55,50,45,51,46,40,93,84,72,30.38,30.17,29.96,10,9,4,12,3,,0.04,7,Rain,230
2013-11-23,53,40,28,47,24,13,81,54,36,30.10,30.04,29.97,10,9,1,24,11,39,0.00,1,Snow,303
2013-11-24,30,27,24,7,0,-2,40,32,25,30.46,30.28,30.11,10,10,9,21,14,37,0.00,0,Snow,305
2013-11-25,33,27,21,17,11,4,60,49,38,30.54,30.45,30.38,10,10,10,9,6,,0.00,0,,239
2013-11-26,55,41,30,54,32,17,97,79,49,30.37,30.13,29.67,10,7,3,12,4,18,0.58,7,Rain,100
2013-11-27,63,49,33,61,46,18,97,88,52,29.87,29.51,29.40,10,6,2,22,11,33,1.47,8,Rain,255
2013-11-28,36,32,28,23,16,13,78,53,40,30.50,30.28,29.90,10,10,10,18,11,31,0.00,2,,288
2013-11-29,39,31,23,26,19,16,91,65,38,30.74,30.61,30.50,10,10,7,9,2,,0.00,1,,346
2013-11-30,39,31,23,28,21,12,76,64,55,30.74,30.62,30.38,10,10,10,8,5,,0.00,3,,45